• In Czech Republic
  • List of Countries
  • For 7 days
  • Water Temperature
  • Satellite Maps
  • Weather Map
  • Weather Widgets
  • user-avatar
    Login

    Hourly Weather Shymkent

    Today, 17 January, Wednesday

    Time Temperature Precipitation Wind Pressure Humidity
    00:00 -2°C° 0 mm 1 mps 720 mmHg 91%
    01:00 -2°C° 0 mm 1 mps 720 mmHg 90%
    02:00 -2°C° 0 mm 1 mps 720 mmHg 89%
    03:00 -2°C° 0 mm 1 mps 720 mmHg 89%
    04:00 -3°C° 0 mm 1 mps 720 mmHg 88%
    05:00 -3°C° 0 mm 1 mps 720 mmHg 88%
    06:00 -3°C° 0.1 mm 1 mps 721 mmHg 88%
    07:00 -2°C° 0.1 mm 1 mps 721 mmHg 88%
    08:00 -2°C° 0.1 mm 1 mps 721 mmHg 88%
    09:00 -2°C° 0.1 mm 1 mps 721 mmHg 86%
    10:00 -1°C° 0.1 mm 1 mps 721 mmHg 83%
    11:00 0°C° 0.1 mm 1 mps 721 mmHg 81%
    12:00 0°C° 0 mm 1 mps 721 mmHg 80%
    13:00 +1°C° 0 mm 1 mps 721 mmHg 79%
    14:00 +1°C° 0 mm 1 mps 721 mmHg 78%
    15:00 0°C° 0 mm 1 mps 721 mmHg 81%
    16:00 0°C° 0 mm 1 mps 721 mmHg 83%
    17:00 -1°C° 0 mm 1 mps 721 mmHg 85%
    18:00 -1°C° 0 mm 1 mps 722 mmHg 85%
    19:00 -2°C° 0 mm 1 mps 722 mmHg 85%
    20:00 -2°C° 0 mm 1 mps 722 mmHg 84%
    21:00 -2°C° 0 mm 1 mps 722 mmHg 82%
    22:00 -4°C° 0 mm 2 mps 722 mmHg 80%
    23:00 -4°C° 0 mm 2 mps 722 mmHg 78%

    Tomorrow, 18 January, Thursday

    Time Temperature Precipitation Wind Pressure Humidity
    00:00 -4°C° 0 mm 2 mps 722 mmHg 76%
    01:00 -4°C° 0 mm 2 mps 722 mmHg 74%
    02:00 -4°C° 0 mm 2 mps 722 mmHg 72%
    03:00 -4°C° 0 mm 2 mps 722 mmHg 70%
    04:00 -3°C° 0 mm 2 mps 722 mmHg 69%
    05:00 -3°C° 0 mm 2 mps 722 mmHg 68%
    06:00 -3°C° 0 mm 2 mps 721 mmHg 67%
    07:00 -3°C° 0 mm 2 mps 721 mmHg 66%
    08:00 -3°C° 0 mm 2 mps 721 mmHg 65%
    09:00 +1°C° 0 mm 1 mps 721 mmHg 66%
    10:00 +2°C° 0 mm 1 mps 721 mmHg 68%
    11:00 +4°C° 0 mm 1 mps 721 mmHg 70%
    12:00 +4°C° 0 mm 1 mps 721 mmHg 71%
    13:00 +5°C° 0 mm 1 mps 721 mmHg 72%
    14:00 +5°C° 0 mm 1 mps 720 mmHg 73%
    15:00 +4°C° 0 mm 1 mps 720 mmHg 71%
    16:00 +3°C° 0 mm 2 mps 720 mmHg 69%
    17:00 +2°C° 0 mm 2 mps 720 mmHg 67%
    18:00 +2°C° 0 mm 2 mps 720 mmHg 66%
    19:00 +1°C° 0 mm 2 mps 720 mmHg 64%
    20:00 +1°C° 0 mm 2 mps 719 mmHg 63%
    21:00 +1°C° 0 mm 2 mps 719 mmHg 61%
    22:00 +1°C° 0 mm 2 mps 719 mmHg 60%
    23:00 +1°C° 0 mm 2 mps 719 mmHg 58%

    Day after tomorrow, 19 January, Friday

    Time Temperature Precipitation Wind Pressure Humidity
    00:00 +1°C° 0 mm 2 mps 719 mmHg 58%
    01:00 +1°C° 0 mm 2 mps 719 mmHg 57%
    02:00 +2°C° 0 mm 2 mps 718 mmHg 56%
    03:00 +2°C° 0 mm 2 mps 718 mmHg 57%
    04:00 +2°C° 0 mm 2 mps 718 mmHg 57%
    05:00 +2°C° 0 mm 2 mps 718 mmHg 58%
    06:00 +2°C° 0 mm 2 mps 718 mmHg 59%
    07:00 +2°C° 0 mm 2 mps 718 mmHg 60%
    08:00 +1°C° 0 mm 3 mps 719 mmHg 61%
    09:00 +3°C° 0 mm 3 mps 719 mmHg 64%
    10:00 +4°C° 0 mm 3 mps 719 mmHg 66%
    11:00 +5°C° 0 mm 3 mps 719 mmHg 68%
    12:00 +7°C° 0 mm 3 mps 719 mmHg 68%
    13:00 +8°C° 0 mm 3 mps 719 mmHg 67%
    14:00 +9°C° 0 mm 3 mps 718 mmHg 67%
    15:00 +8°C° 0 mm 3 mps 718 mmHg 66%
    16:00 +7°C° 0 mm 3 mps 719 mmHg 64%
    17:00 +5°C° 0 mm 3 mps 719 mmHg 63%
    18:00 +5°C° 0 mm 3 mps 719 mmHg 62%
    19:00 +4°C° 0 mm 3 mps 719 mmHg 60%
    20:00 +4°C° 0 mm 3 mps 719 mmHg 59%
    21:00 +4°C° 0 mm 3 mps 719 mmHg 58%
    22:00 +4°C° 0 mm 3 mps 719 mmHg 57%
    23:00 +4°C° 0 mm 2 mps 719 mmHg 56%

    20 January, Saturday

    Time Temperature Precipitation Wind Pressure Humidity
    00:00 +4°C° 0 mm 2 mps 720 mmHg 56%
    01:00 +4°C° 0 mm 2 mps 720 mmHg 55%
    02:00 +4°C° 0 mm 2 mps 720 mmHg 54%
    03:00 +4°C° 0 mm 2 mps 720 mmHg 54%
    04:00 +3°C° 0 mm 3 mps 720 mmHg 54%
    05:00 +3°C° 0 mm 3 mps 720 mmHg 54%
    06:00 +3°C° 0 mm 3 mps 720 mmHg 53%
    07:00 +3°C° 0 mm 3 mps 720 mmHg 52%
    08:00 +3°C° 0 mm 3 mps 720 mmHg 51%
    09:00 +4°C° 0 mm 3 mps 720 mmHg 52%
    10:00 +7°C° 0 mm 3 mps 720 mmHg 53%
    11:00 +8°C° 0 mm 2 mps 720 mmHg 55%
    12:00 +9°C° 0 mm 2 mps 720 mmHg 55%
    13:00 +10°C° 0 mm 2 mps 720 mmHg 55%
    14:00 +12°C° 0 mm 2 mps 719 mmHg 55%
    15:00 +10°C° 0 mm 2 mps 719 mmHg 53%
    16:00 +9°C° 0 mm 3 mps 719 mmHg 52%
    17:00 +8°C° 0 mm 3 mps 719 mmHg 51%
    18:00 +7°C° 0 mm 3 mps 719 mmHg 49%
    19:00 +5°C° 0 mm 3 mps 719 mmHg 48%
    20:00 +4°C° 0 mm 3 mps 718 mmHg 46%
    21:00 +4°C° 0 mm 3 mps 718 mmHg 45%
    22:00 +4°C° 0 mm 3 mps 718 mmHg 44%
    23:00 +4°C° 0 mm 3 mps 717 mmHg 43%

    21 January, Sunday

    Time Temperature Precipitation Wind Pressure Humidity
    00:00 +4°C° 0 mm 3 mps 717 mmHg 43%
    01:00 +4°C° 0 mm 3 mps 717 mmHg 42%
    02:00 +4°C° 0 mm 3 mps 717 mmHg 41%
    03:00 +4°C° 0 mm 3 mps 717 mmHg 41%
    04:00 +3°C° 0 mm 3 mps 717 mmHg 40%
    05:00 +3°C° 0 mm 3 mps 717 mmHg 39%
    06:00 +4°C° 0 mm 2 mps 717 mmHg 39%
    07:00 +4°C° 0 mm 2 mps 717 mmHg 39%
    08:00 +4°C° 0 mm 2 mps 717 mmHg 38%
    09:00 +6°C° 0 mm 2 mps 717 mmHg 39%
    10:00 +7°C° 0 mm 2 mps 717 mmHg 41%
    11:00 +10°C° 0 mm 1 mps 717 mmHg 42%
    12:00 +11°C° 0 mm 1 mps 717 mmHg 42%
    13:00 +12°C° 0 mm 1 mps 717 mmHg 42%
    14:00 +12°C° 0 mm 1 mps 717 mmHg 42%
    15:00 +11°C° 0 mm 1 mps 717 mmHg 44%
    16:00 +9°C° 0 mm 2 mps 717 mmHg 46%
    17:00 +8°C° 0 mm 2 mps 717 mmHg 48%
    18:00 +7°C° 0 mm 2 mps 717 mmHg 47%
    19:00 +6°C° 0 mm 2 mps 717 mmHg 47%
    20:00 +6°C° 0 mm 2 mps 717 mmHg 47%
    21:00 +5°C° 0 mm 2 mps 717 mmHg 45%
    22:00 +5°C° 0 mm 2 mps 717 mmHg 44%
    23:00 +5°C° 0 mm 2 mps 717 mmHg 43%

    22 January, Monday

    Time Temperature Precipitation Wind Pressure Humidity
    00:00 +5°C° 0 mm 2 mps 718 mmHg 43%
    01:00 +5°C° 0 mm 2 mps 718 mmHg 43%
    02:00 +4°C° 0 mm 2 mps 718 mmHg 42%
    03:00 +4°C° 0 mm 2 mps 718 mmHg 43%
    04:00 +4°C° 0 mm 2 mps 718 mmHg 43%
    05:00 +4°C° 0 mm 2 mps 718 mmHg 43%
    06:00 +4°C° 0 mm 2 mps 718 mmHg 44%
    07:00 +4°C° 0 mm 2 mps 718 mmHg 44%
    08:00 +3°C° 0 mm 2 mps 719 mmHg 44%
    09:00 +5°C° 0 mm 2 mps 719 mmHg 44%
    10:00 +6°C° 0 mm 2 mps 719 mmHg 43%
    11:00 +9°C° 0 mm 1 mps 720 mmHg 43%
    12:00 +10°C° 0 mm 1 mps 720 mmHg 43%
    13:00 +10°C° 0 mm 1 mps 719 mmHg 43%
    14:00 +10°C° 0 mm 2 mps 719 mmHg 43%
    15:00 +9°C° 0 mm 2 mps 719 mmHg 46%
    16:00 +7°C° 0 mm 2 mps 719 mmHg 49%
    17:00 +6°C° 0 mm 2 mps 720 mmHg 52%
    18:00 +4°C° 0 mm 3 mps 720 mmHg 53%
    19:00 +3°C° 0 mm 3 mps 720 mmHg 53%
    20:00 +3°C° 0 mm 3 mps 720 mmHg 54%
    21:00 +2°C° 0 mm 3 mps 720 mmHg 53%
    22:00 +2°C° 0 mm 3 mps 720 mmHg 52%
    23:00 +2°C° 0 mm 3 mps 719 mmHg 51%
    Show more